DW5364 Weather Reports


Display with metric or nautical units.
time (UTC)temp
F
wind
direction
speed
MPH
gust
MPH
rain 1hr
in
rain 24hr
in
rain mn
in
humidity
%
barometer
mb
20260510201512 81 247 0.0 1.0 0.00 0.00 0.00 35 1012.4
20260510200013 81 247 0.0 3.0 0.00 0.00 0.00 28 1012.4
20260510194520 82 247 0.0 0.0 0.00 0.00 0.00 32 1012.7
20260510193012 82 247 0.0 1.0 0.00 0.00 0.00 28 1012.6
20260510191511 83 247 0.0 5.0 0.00 0.00 0.00 32 1012.8
20260510190016 83 229 0.0 2.0 0.00 0.00 0.00 31 1012.8
20260510184507 82 229 0.0 3.0 0.00 0.00 0.00 30 1013.0
20260510183007 81 230 0.0 0.0 0.00 0.00 0.00 33 1013.0
20260510181505 82 231 0.0 2.0 0.00 0.00 0.00 31 1013.2
20260510180008 82 231 0.0 0.0 0.00 0.00 0.00 32 1013.4
20260510174505 81 230 0.0 3.0 0.00 0.00 0.00 33 1013.4
20260510173004 81 230 0.0 0.0 0.00 0.00 0.00 33 1013.8
20260510171502 81 230 0.0 1.0 0.00 0.00 0.00 31 1013.9
20260510170002 81 230 0.0 0.0 0.00 0.00 0.00 29 1013.9
20260510164506 82 230 0.0 0.0 0.00 0.00 0.00 30 1013.9
20260510163152 81 230 0.0 2.0 0.00 0.00 0.00 30 1013.9
20260510161557 81 230 0.0 1.0 0.00 0.00 0.00 34 1014.2
20260510160059 80 230 0.0 2.0 0.00 0.00 0.00 35 1014.2
20260510154554 80 230 0.0 0.0 0.00 0.00 0.00 41 1014.2
20260510153100 78 230 0.0 0.0 0.00 0.00 0.00 44 1014.4
20260510151600 78 230 0.0 0.0 0.00 0.00 0.00 43 1014.5
20260510150046 77 230 0.0 0.0 0.00 0.00 0.00 50 1014.4
20260510144545 76 230 0.0 0.0 0.00 0.00 0.00 49 1014.4
20260510143051 76 230 0.0 0.0 0.00 0.00 0.00 52 1014.5
20260510141536 75 230 0.0 0.0 0.00 0.00 0.00 52 1014.6
20260510140034 72 230 0.0 0.0 0.00 0.00 0.00 62 1014.6
20260510134529 70 230 0.0 0.0 0.00 0.00 0.00 69 1014.6
20260510133026 69 230 0.0 0.0 0.00 0.00 0.00 76 1014.4
20260510131525 67 230 0.0 0.0 0.00 0.00 0.00 83 1014.4
20260510130016 64 230 0.0 0.0 0.00 0.00 0.00 88 1014.4
20260510124520 61 230 0.0 0.0 0.00 0.00 0.00 93 1014.3
20260510123011 59 230 0.0 0.0 0.00 0.00 0.00 95 1014.2
20260510121516 57 230 0.0 0.0 0.00 0.00 0.00 96 1014.0
20260510120028 55 230 0.0 0.0 0.00 0.00 0.00 96 1013.8
20260510114529 53 230 0.0 0.0 0.00 0.00 0.00 95 1013.3
20260510113026 53 230 0.0 0.0 0.00 0.00 0.00 95 1013.2
20260510111524 52 230 0.0 0.0 0.00 0.00 0.00 95 1013.0
20260510110026 52 230 0.0 0.0 0.00 0.00 0.00 94 1012.6
20260510104520 52 230 0.0 0.0 0.00 0.00 0.00 94 1012.5
20260510103025 52 230 0.0 0.0 0.00 0.00 0.00 94 1012.1
20260510101515 53 227 0.0 0.0 0.00 0.00 0.00 93 1011.9
20260510100027 53 227 0.0 0.0 0.00 0.00 0.00 93 1011.8
20260510094515 53 227 0.0 0.0 0.00 0.00 0.00 93 1011.7
20260510093010 54 227 0.0 0.0 0.00 0.00 0.00 93 1011.5
20260510091508 54 227 0.0 0.0 0.00 0.00 0.00 93 1011.5
20260510090007 55 227 0.0 0.0 0.00 0.00 0.00 93 1011.3
20260510084503 55 227 0.0 0.0 0.00 0.00 0.00 93 1011.1
20260510083005 56 227 0.0 0.0 0.00 0.00 0.00 93 1011.0
20260510081600 56 227 0.0 0.0 0.00 0.00 0.00 93 1010.8
20260510080059 56 227 0.0 0.0 0.00 0.00 0.00 93 1010.6
20260510074558 57 227 0.0 0.0 0.00 0.00 0.00 93 1010.4
20260510073104 57 227 0.0 0.0 0.00 0.00 0.00 93 1010.3
20260510071555 57 227 0.0 0.0 0.00 0.00 0.00 93 1010.1
20260510070055 57 227 0.0 0.0 0.00 0.00 0.00 93 1010.3
20260510064554 58 227 0.0 0.0 0.00 0.00 0.00 93 1010.2
20260510063051 58 227 0.0 0.0 0.00 0.00 0.00 92 1010.2
20260510061550 59 227 0.0 0.0 0.00 0.00 0.00 92 1010.3
20260510060050 59 227 0.0 0.0 0.00 0.00 0.00 92 1010.3
20260510054545 59 227 0.0 0.0 0.00 0.00 0.00 92 1010.4
20260510053042 60 227 0.0 0.0 0.00 0.00 0.00 92 1010.5
20260510051545 60 227 0.0 0.0 0.00 0.00 0.00 91 1010.6
20260510050044 60 227 0.0 0.0 0.00 0.00 0.00 91 1010.6
20260510044538 61 227 0.0 0.0 0.00 0.00 0.00 91 1010.7
20260510043041 61 227 0.0 0.0 0.00 0.00 0.00 90 1010.6
20260510041535 61 227 0.0 0.0 0.00 0.00 0.00 91 1010.8
20260510040032 61 227 0.0 0.0 0.00 0.00 0.00 90 1010.7
20260510034540 61 227 0.0 0.0 0.00 0.00 0.00 89 1010.6
20260510033032 62 227 0.0 0.0 0.00 0.00 0.00 89 1010.6
20260510031531 62 227 0.0 0.0 0.00 0.00 0.00 88 1010.7
20260510030030 63 227 0.0 0.0 0.00 0.00 0.00 86 1010.6
20260510024530 64 227 0.0 0.0 0.00 0.00 0.00 84 1010.6
20260510023032 65 227 0.0 0.0 0.00 0.00 0.00 84 1010.6
20260510021532 65 227 0.0 0.0 0.00 0.00 0.00 83 1010.6
20260510020028 64 227 0.0 0.0 0.00 0.00 0.00 85 1010.1
20260510014529 64 227 0.0 0.0 0.00 0.00 0.00 85 1010.1
20260510013028 64 227 0.0 0.0 0.00 0.00 0.00 83 1009.9
20260510011537 65 227 0.0 0.0 0.00 0.00 0.00 81 1009.8
20260510010026 66 227 0.0 0.0 0.00 0.00 0.00 80 1009.5
20260510004525 67 227 0.0 0.0 0.00 0.00 0.00 79 1009.1
20260510003027 68 227 0.0 0.0 0.00 0.00 0.00 76 1008.9
20260510001526 68 227 0.0 0.0 0.00 0.00 0.00 75 1008.7
20260510000046 69 227 0.0 0.0 0.00 0.00 0.00 75 1008.4
20260509234534 69 227 0.0 0.0 0.00 0.00 0.00 75 1008.5
20260509233027 70 227 0.0 3.0 0.00 0.00 0.00 73 1008.5
20260509231522 70 228 0.0 1.0 0.00 0.00 0.00 72 1008.4
20260509230022 71 238 0.0 11.0 0.00 0.00 0.00 71 1007.8
20260509224521 71 189 0.0 7.0 0.00 0.00 0.00 70 1008.1
20260509223020 71 200 0.0 6.0 0.00 0.00 0.00 69 1007.9
20260509221520 71 218 0.0 8.0 0.00 0.00 0.00 69 1007.7
20260509220023 72 143 0.0 10.0 0.00 0.00 0.00 70 1007.7
20260509214527 72 190 0.0 3.0 0.00 0.00 0.00 69 1007.8
20260509213018 72 187 0.0 8.0 0.00 0.00 0.00 68 1007.7
20260509211519 72 197 0.0 4.0 0.00 0.00 0.00 69 1007.6
20260509210016 73 187 0.0 7.0 0.00 0.00 0.00 67 1007.6
20260509204523 73 178 0.0 5.0 0.00 0.00 0.00 65 1007.4
20260509203014 73 196 1.0 11.0 0.00 0.00 0.00 66 1007.3